カタログに戻る

HAWK-8B

運用中軍事VLEO
NORAD 59445·PAYLOAD·🇺🇸 United States

打ち上げ Apr 7, 2024 から Cape Canaveral Space Force Station

Loading…

次のパス (今後24時間)

TLE

最新Source: Space-Track

元期: Sep 14, 2026, 11:09 UTC

1 59445U 24066D   26257.46465929  .00005137  00000-0  43170-3 0  9996
2 59445  45.6104 177.0294 0002915 190.9627 169.1192 14.99414270133221

AllMySatでHAWK-8Bをリアルタイム追跡

Download on the App Store